Year,Month,Day,Hour,Minute,Value (Times are PST for temperature in C)
2016,02,23,08,10,3.50
2016,02,23,08,11,3.50
2016,02,23,08,12,3.50
2016,02,23,08,13,3.50
2016,02,23,08,14,3.50
2016,02,23,08,15,3.50
2016,02,23,08,16,3.60
2016,02,23,08,17,3.60
2016,02,23,08,18,3.60
2016,02,23,08,19,3.60
2016,02,23,08,20,3.60
2016,02,23,08,21,3.70
2016,02,23,08,22,3.70
2016,02,23,08,23,3.70
2016,02,23,08,24,3.70
2016,02,23,08,25,3.80
2016,02,23,08,26,3.80
2016,02,23,08,27,3.80
2016,02,23,08,28,3.80
2016,02,23,08,29,3.80
2016,02,23,08,30,3.90
2016,02,23,08,31,3.90
2016,02,23,08,32,3.90
2016,02,23,08,33,3.90
2016,02,23,08,34,3.90
2016,02,23,08,35,4.00
2016,02,23,08,36,4.00
2016,02,23,08,37,4.00
2016,02,23,08,38,4.00
2016,02,23,08,39,4.10
2016,02,23,08,40,4.10
2016,02,23,08,41,4.10
2016,02,23,08,42,4.10
2016,02,23,08,43,4.20
2016,02,23,08,44,4.20
2016,02,23,08,45,4.20
2016,02,23,08,46,4.20
2016,02,23,08,47,4.20
2016,02,23,08,48,4.20
2016,02,23,08,49,4.20
2016,02,23,08,50,4.30
2016,02,23,08,51,4.30
2016,02,23,08,52,4.30
2016,02,23,08,53,4.30
2016,02,23,08,54,4.30
2016,02,23,08,55,4.40
2016,02,23,08,56,4.40
2016,02,23,08,57,4.50
2016,02,23,08,58,4.50
2016,02,23,08,59,4.60
2016,02,23,09,00,4.60
2016,02,23,09,01,4.60
2016,02,23,09,02,4.60
2016,02,23,09,03,4.70
2016,02,23,09,04,4.70
2016,02,23,09,05,4.70
2016,02,23,09,06,4.70
2016,02,23,09,07,4.70
2016,02,23,09,08,4.70
2016,02,23,09,09,4.70
2016,02,23,09,10,4.80
2016,02,23,09,11,4.80
2016,02,23,09,12,4.80
2016,02,23,09,13,4.80
2016,02,23,09,14,4.90
2016,02,23,09,15,4.90
2016,02,23,09,16,5.00
2016,02,23,09,17,5.00
2016,02,23,09,18,5.00
2016,02,23,09,19,5.00
2016,02,23,09,20,5.10
2016,02,23,09,21,5.10
2016,02,23,09,22,5.10
2016,02,23,09,23,5.10
2016,02,23,09,24,5.20
2016,02,23,09,25,5.20
2016,02,23,09,26,5.20
2016,02,23,09,27,5.30
2016,02,23,09,28,5.30
2016,02,23,09,29,5.30
2016,02,23,09,30,5.30
2016,02,23,09,31,5.40
2016,02,23,09,32,5.40
2016,02,23,09,33,5.50
2016,02,23,09,34,5.50
2016,02,23,09,35,5.60
2016,02,23,09,36,5.60
2016,02,23,09,37,5.70
2016,02,23,09,38,5.70
2016,02,23,09,39,5.70
2016,02,23,09,40,5.70
2016,02,23,09,41,5.70
2016,02,23,09,42,5.70
2016,02,23,09,43,5.80
2016,02,23,09,44,5.80
2016,02,23,09,45,5.90
2016,02,23,09,46,5.90
2016,02,23,09,47,5.90
2016,02,23,09,48,5.90
2016,02,23,09,49,5.90
2016,02,23,09,50,5.90
2016,02,23,09,51,5.90
2016,02,23,09,52,5.90
2016,02,23,09,53,5.90
2016,02,23,09,54,5.90
2016,02,23,09,55,5.90
2016,02,23,09,56,5.90
2016,02,23,09,57,6.00
2016,02,23,09,58,6.00
2016,02,23,09,59,6.00
2016,02,23,10,00,6.00
2016,02,23,10,01,5.90
2016,02,23,10,02,6.00
2016,02,23,10,03,6.00
2016,02,23,10,04,6.00
2016,02,23,10,05,6.10
2016,02,23,10,06,6.10
2016,02,23,10,07,6.20
2016,02,23,10,08,6.20
2016,02,23,10,09,6.20
2016,02,23,10,10,6.30
2016,02,23,10,11,6.30
2016,02,23,10,12,6.30
2016,02,23,10,13,6.30
2016,02,23,10,14,6.30
2016,02,23,10,15,6.30
2016,02,23,10,16,6.30
2016,02,23,10,17,6.30
2016,02,23,10,18,6.40
2016,02,23,10,19,6.40
2016,02,23,10,20,6.50
2016,02,23,10,21,6.50
2016,02,23,10,22,6.60
2016,02,23,10,23,6.60
2016,02,23,10,24,6.60
2016,02,23,10,25,6.70
2016,02,23,10,26,6.70
2016,02,23,10,27,6.80
2016,02,23,10,28,6.80
2016,02,23,10,29,6.80
2016,02,23,10,30,6.90
2016,02,23,10,31,6.90
2016,02,23,10,32,6.90
2016,02,23,10,33,6.90
2016,02,23,10,34,6.90
2016,02,23,10,35,6.90
2016,02,23,10,36,6.90
2016,02,23,10,37,6.90
2016,02,23,10,38,6.90
2016,02,23,10,39,6.90
2016,02,23,10,40,7.00
2016,02,23,10,41,7.00
2016,02,23,10,42,7.20
2016,02,23,10,43,7.20
2016,02,23,10,44,7.30
2016,02,23,10,45,7.30
2016,02,23,10,46,7.20
2016,02,23,10,47,7.20
2016,02,23,10,48,7.20
2016,02,23,10,49,7.20
2016,02,23,10,50,7.20
2016,02,23,10,51,7.10
2016,02,23,10,52,7.10
2016,02,23,10,53,7.20
2016,02,23,10,54,7.20
2016,02,23,10,55,7.20
2016,02,23,10,56,7.20
2016,02,23,10,57,7.20
2016,02,23,10,58,7.30
2016,02,23,10,59,7.30
2016,02,23,11,00,7.30
2016,02,23,11,01,7.30
2016,02,23,11,02,7.30
2016,02,23,11,03,7.30
2016,02,23,11,04,7.30
2016,02,23,11,05,7.30
2016,02,23,11,06,7.40
2016,02,23,11,07,7.40
2016,02,23,11,08,7.50
2016,02,23,11,09,7.60
2016,02,23,11,10,7.60
2016,02,23,11,11,7.60
2016,02,23,11,12,7.50
2016,02,23,11,13,7.50
2016,02,23,11,14,7.40
2016,02,23,11,15,7.40
2016,02,23,11,16,7.40
2016,02,23,11,17,7.40
2016,02,23,11,18,7.40
2016,02,23,11,19,7.40
2016,02,23,11,20,7.40
2016,02,23,11,21,7.40
2016,02,23,11,22,7.50
2016,02,23,11,23,7.60
2016,02,23,11,24,7.60
2016,02,23,11,25,7.60
2016,02,23,11,26,7.60
2016,02,23,11,27,7.60
2016,02,23,11,28,7.60
2016,02,23,11,29,7.60
2016,02,23,11,30,7.60
2016,02,23,11,31,7.60
2016,02,23,11,32,7.60
2016,02,23,11,33,7.70
2016,02,23,11,34,7.70
2016,02,23,11,35,7.70
2016,02,23,11,36,7.70
2016,02,23,11,37,7.70
2016,02,23,11,38,7.70
2016,02,23,11,39,7.80
2016,02,23,11,40,7.80
2016,02,23,11,41,7.80
2016,02,23,11,42,7.80
2016,02,23,11,43,7.90
2016,02,23,11,44,7.90
2016,02,23,11,45,7.90
2016,02,23,11,46,7.90
2016,02,23,11,47,8.00
2016,02,23,11,48,7.90
2016,02,23,11,49,7.90
2016,02,23,11,50,7.80
2016,02,23,11,51,7.80
2016,02,23,11,52,7.80
2016,02,23,11,53,7.80
2016,02,23,11,54,7.80
2016,02,23,11,55,7.90
2016,02,23,11,56,7.90
2016,02,23,11,57,7.90
2016,02,23,11,58,7.90
2016,02,23,11,59,7.80
2016,02,23,12,00,7.80
2016,02,23,12,01,7.80
2016,02,23,12,02,7.70
2016,02,23,12,03,7.80
2016,02,23,12,04,7.80
2016,02,23,12,05,7.80
2016,02,23,12,06,7.80
2016,02,23,12,07,7.90
2016,02,23,12,08,7.90
2016,02,23,12,09,8.00
2016,02,23,12,10,8.10
2016,02,23,12,11,8.10
2016,02,23,12,12,8.10
2016,02,23,12,13,8.10
2016,02,23,12,14,8.10
2016,02,23,12,15,8.00
2016,02,23,12,16,8.00
2016,02,23,12,17,7.90
2016,02,23,12,18,7.90
2016,02,23,12,19,7.90
2016,02,23,12,20,7.90
2016,02,23,12,21,7.90
2016,02,23,12,22,7.90
2016,02,23,12,23,8.00
2016,02,23,12,24,8.10
2016,02,23,12,25,8.10
2016,02,23,12,26,8.20
2016,02,23,12,27,8.20
2016,02,23,12,28,8.20
2016,02,23,12,29,8.20
2016,02,23,12,30,8.20
2016,02,23,12,31,8.20
2016,02,23,12,32,8.20
2016,02,23,12,33,8.20
2016,02,23,12,34,8.30
2016,02,23,12,35,8.30
2016,02,23,12,36,8.30
2016,02,23,12,37,8.40
2016,02,23,12,38,8.50
2016,02,23,12,39,8.60
2016,02,23,12,40,8.60
2016,02,23,12,41,8.50
2016,02,23,12,42,8.50
2016,02,23,12,43,8.40
2016,02,23,12,44,8.40
2016,02,23,12,45,8.40
2016,02,23,12,46,8.30
2016,02,23,12,47,8.30
2016,02,23,12,48,8.30
2016,02,23,12,49,8.40
2016,02,23,12,50,8.40
2016,02,23,12,51,8.40
2016,02,23,12,52,8.40
2016,02,23,12,53,8.40
2016,02,23,12,54,8.40
2016,02,23,12,55,8.30
2016,02,23,12,56,8.30
2016,02,23,12,57,8.40
2016,02,23,12,58,8.50
2016,02,23,12,59,8.60
2016,02,23,13,00,8.60
2016,02,23,13,01,8.60
2016,02,23,13,02,8.60
2016,02,23,13,03,8.50
2016,02,23,13,04,8.50
2016,02,23,13,05,8.50
2016,02,23,13,06,8.50
2016,02,23,13,07,8.50
2016,02,23,13,08,8.60
2016,02,23,13,09,8.60
2016,02,23,13,10,8.70
2016,02,23,13,11,8.70
2016,02,23,13,12,8.70
2016,02,23,13,13,8.70
2016,02,23,13,14,8.70
2016,02,23,13,15,8.70
2016,02,23,13,16,8.80
2016,02,23,13,17,8.80
2016,02,23,13,18,8.90
2016,02,23,13,19,8.90
2016,02,23,13,20,9.00
2016,02,23,13,21,9.00
2016,02,23,13,22,9.00
2016,02,23,13,23,9.00
2016,02,23,13,24,9.00
2016,02,23,13,25,9.00
2016,02,23,13,26,9.10
2016,02,23,13,27,9.00
2016,02,23,13,28,8.90
2016,02,23,13,29,8.90
2016,02,23,13,30,8.80
2016,02,23,13,31,8.80
2016,02,23,13,32,8.70
2016,02,23,13,33,8.70
2016,02,23,13,34,8.80
2016,02,23,13,35,8.90
2016,02,23,13,36,8.90
2016,02,23,13,37,8.90
2016,02,23,13,38,8.90
2016,02,23,13,39,8.90
2016,02,23,13,40,8.90
2016,02,23,13,41,8.90
2016,02,23,13,42,8.90
2016,02,23,13,43,8.90
2016,02,23,13,44,8.90
2016,02,23,13,45,8.90
2016,02,23,13,46,8.90
2016,02,23,13,47,8.90
2016,02,23,13,48,8.90
2016,02,23,13,49,9.00
2016,02,23,13,50,8.90
2016,02,23,13,51,9.00
2016,02,23,13,52,9.00
2016,02,23,13,53,9.10
2016,02,23,13,54,9.10
2016,02,23,13,55,9.20
2016,02,23,13,56,9.20
2016,02,23,13,57,9.20
2016,02,23,13,58,9.20
2016,02,23,13,59,9.20
2016,02,23,14,00,9.20
2016,02,23,14,01,9.20
2016,02,23,14,02,9.20
2016,02,23,14,03,9.30
2016,02,23,14,04,9.30
2016,02,23,14,05,9.30
2016,02,23,14,06,9.30
2016,02,23,14,07,9.30
2016,02,23,14,08,9.30
2016,02,23,14,09,9.30
2016,02,23,14,10,9.30
2016,02,23,14,11,9.30
2016,02,23,14,12,9.30
2016,02,23,14,13,9.30
2016,02,23,14,14,9.40
2016,02,23,14,15,9.40
2016,02,23,14,16,9.50
2016,02,23,14,17,9.50
2016,02,23,14,18,9.50
2016,02,23,14,19,9.50
2016,02,23,14,20,9.50
2016,02,23,14,21,9.40
2016,02,23,14,22,9.40
2016,02,23,14,23,9.40
2016,02,23,14,24,9.40
2016,02,23,14,25,9.50
2016,02,23,14,26,9.50
2016,02,23,14,27,9.50
2016,02,23,14,28,9.60
2016,02,23,14,29,9.70
2016,02,23,14,30,9.70
2016,02,23,14,31,9.80
2016,02,23,14,32,9.80
2016,02,23,14,33,9.90
2016,02,23,14,34,9.90
2016,02,23,14,35,9.90
2016,02,23,14,36,9.80
2016,02,23,14,37,9.80
2016,02,23,14,38,9.80
2016,02,23,14,39,9.80
2016,02,23,14,40,9.80
2016,02,23,14,41,9.80
2016,02,23,14,42,9.80
2016,02,23,14,43,9.80
2016,02,23,14,44,9.70
2016,02,23,14,45,9.70
2016,02,23,14,46,9.60
2016,02,23,14,47,9.60
2016,02,23,14,48,9.60
2016,02,23,14,49,9.60
2016,02,23,14,50,9.50
2016,02,23,14,51,9.50
2016,02,23,14,52,9.60
2016,02,23,14,53,9.50
2016,02,23,14,54,9.50
2016,02,23,14,55,9.40
2016,02,23,14,56,9.40
2016,02,23,14,57,9.30
2016,02,23,14,58,9.30
2016,02,23,14,59,9.30
2016,02,23,15,00,9.30
2016,02,23,15,01,9.30
2016,02,23,15,02,9.30
2016,02,23,15,03,9.30
2016,02,23,15,04,9.30
2016,02,23,15,05,9.30
2016,02,23,15,06,9.30
2016,02,23,15,07,9.30
2016,02,23,15,08,9.30
2016,02,23,15,09,9.30
2016,02,23,15,10,9.20
2016,02,23,15,11,9.20
2016,02,23,15,12,9.10
2016,02,23,15,13,9.10
2016,02,23,15,14,9.10
2016,02,23,15,15,9.00
2016,02,23,15,16,9.00
2016,02,23,15,17,9.00
2016,02,23,15,18,9.00
2016,02,23,15,19,9.10
2016,02,23,15,20,9.10
2016,02,23,15,21,9.10
2016,02,23,15,22,9.10
2016,02,23,15,23,9.10
2016,02,23,15,24,9.10
2016,02,23,15,25,9.10
2016,02,23,15,26,9.10
2016,02,23,15,27,9.10
2016,02,23,15,28,9.10
2016,02,23,15,29,9.10
2016,02,23,15,30,9.10
2016,02,23,15,31,9.10
2016,02,23,15,32,9.10
2016,02,23,15,33,9.10
2016,02,23,15,34,9.10
2016,02,23,15,35,9.10
2016,02,23,15,36,9.10
2016,02,23,15,37,9.10
2016,02,23,15,38,9.10
2016,02,23,15,39,9.10
2016,02,23,15,40,9.20
2016,02,23,15,41,9.20
2016,02,23,15,42,9.20
2016,02,23,15,43,9.20
2016,02,23,15,44,9.10
2016,02,23,15,45,9.10
2016,02,23,15,46,9.10
2016,02,23,15,47,9.10
2016,02,23,15,48,9.10
2016,02,23,15,49,9.10
2016,02,23,15,50,9.10
2016,02,23,15,51,9.10
2016,02,23,15,52,9.10
2016,02,23,15,53,9.10
2016,02,23,15,54,9.10
2016,02,23,15,55,9.10
2016,02,23,15,56,9.10
2016,02,23,15,57,9.10
2016,02,23,15,58,9.00
2016,02,23,15,59,9.00
2016,02,23,16,00,9.00
2016,02,23,16,01,9.00
2016,02,23,16,02,9.10
2016,02,23,16,03,9.10
2016,02,23,16,04,9.10
2016,02,23,16,05,9.10
2016,02,23,16,06,9.10
2016,02,23,16,07,9.10
2016,02,23,16,08,9.10
2016,02,23,16,09,9.10
2016,02,23,16,10,9.10
2016,02,23,16,11,9.10
2016,02,23,16,12,9.10
2016,02,23,16,13,9.10
2016,02,23,16,14,9.20
2016,02,23,16,15,9.20
2016,02,23,16,16,9.20
2016,02,23,16,17,9.20
2016,02,23,16,18,9.20
2016,02,23,16,19,9.20
2016,02,23,16,20,9.20
2016,02,23,16,21,9.20
2016,02,23,16,22,9.30
2016,02,23,16,23,9.30
2016,02,23,16,24,9.20
2016,02,23,16,25,9.20
2016,02,23,16,26,9.20
2016,02,23,16,27,9.30
2016,02,23,16,28,9.30
2016,02,23,16,29,9.30
2016,02,23,16,30,9.20
2016,02,23,16,31,9.20
2016,02,23,16,32,9.20
2016,02,23,16,33,9.20
2016,02,23,16,34,9.20
2016,02,23,16,35,9.20
2016,02,23,16,36,9.20
2016,02,23,16,37,9.20
2016,02,23,16,38,9.20
2016,02,23,16,39,9.20
2016,02,23,16,40,9.20
2016,02,23,16,41,9.10
2016,02,23,16,42,9.10
2016,02,23,16,43,9.10
2016,02,23,16,44,9.10
2016,02,23,16,45,9.10
2016,02,23,16,46,9.10
2016,02,23,16,47,9.10
2016,02,23,16,48,9.10
2016,02,23,16,49,9.10
2016,02,23,16,50,9.10
2016,02,23,16,51,9.00
2016,02,23,16,52,9.00
2016,02,23,16,53,9.00
2016,02,23,16,54,8.90
2016,02,23,16,55,8.90
2016,02,23,16,56,8.90
2016,02,23,16,57,8.90
2016,02,23,16,58,8.90
2016,02,23,16,59,8.80
2016,02,23,17,00,8.80
2016,02,23,17,01,8.80
2016,02,23,17,02,8.80
2016,02,23,17,03,8.80
2016,02,23,17,04,8.80
2016,02,23,17,05,8.70
2016,02,23,17,06,8.70
2016,02,23,17,07,8.70
2016,02,23,17,08,8.70
2016,02,23,17,09,8.70
2016,02,23,17,10,8.60
2016,02,23,17,11,8.60
2016,02,23,17,12,8.60
2016,02,23,17,13,8.60
2016,02,23,17,14,8.60
2016,02,23,17,15,8.50
2016,02,23,17,16,8.50
2016,02,23,17,17,8.50
2016,02,23,17,18,8.40
2016,02,23,17,19,8.40
2016,02,23,17,20,8.40
2016,02,23,17,21,8.40
2016,02,23,17,22,8.40
2016,02,23,17,23,8.40
2016,02,23,17,24,8.30
2016,02,23,17,25,8.30
2016,02,23,17,26,8.30
2016,02,23,17,27,8.30
2016,02,23,17,28,8.30
2016,02,23,17,29,8.30
2016,02,23,17,30,8.20
2016,02,23,17,31,8.20
2016,02,23,17,32,8.20
2016,02,23,17,33,8.20
2016,02,23,17,34,8.20
2016,02,23,17,35,8.20
2016,02,23,17,36,8.10
2016,02,23,17,37,8.10
2016,02,23,17,38,8.10
2016,02,23,17,39,8.10
2016,02,23,17,40,8.00
2016,02,23,17,41,8.00
2016,02,23,17,42,7.90
2016,02,23,17,43,7.90
2016,02,23,17,44,7.80
2016,02,23,17,45,7.80
2016,02,23,17,46,7.70
2016,02,23,17,47,7.70
2016,02,23,17,48,7.60
2016,02,23,17,49,7.60
2016,02,23,17,50,7.60
2016,02,23,17,51,7.60
2016,02,23,17,52,7.60
2016,02,23,17,53,7.60
2016,02,23,17,54,7.50
2016,02,23,17,55,7.50
2016,02,23,17,56,7.50
2016,02,23,17,57,7.50
2016,02,23,17,58,7.40
2016,02,23,17,59,7.40
2016,02,23,18,00,7.40
2016,02,23,18,01,7.40
2016,02,23,18,02,7.40
2016,02,23,18,03,7.40
2016,02,23,18,04,7.40
2016,02,23,18,05,7.40
2016,02,23,18,06,7.40
2016,02,23,18,07,7.40
2016,02,23,18,08,7.40
2016,02,23,18,09,7.40
2016,02,23,18,10,7.40
2016,02,23,18,11,7.40
2016,02,23,18,12,7.40
2016,02,23,18,13,7.30
2016,02,23,18,14,7.30
2016,02,23,18,15,7.30
2016,02,23,18,16,7.20
2016,02,23,18,17,7.20
2016,02,23,18,18,7.20
2016,02,23,18,19,7.10
2016,02,23,18,20,7.10
2016,02,23,18,21,7.20
2016,02,23,18,22,7.20
2016,02,23,18,23,7.30
2016,02,23,18,24,7.30
2016,02,23,18,25,7.30
2016,02,23,18,26,7.30
2016,02,23,18,27,7.30
2016,02,23,18,28,7.30
2016,02,23,18,29,7.30
2016,02,23,18,30,7.30
2016,02,23,18,31,7.30
2016,02,23,18,32,7.30
2016,02,23,18,33,7.20
2016,02,23,18,34,7.20
2016,02,23,18,35,7.20
2016,02,23,18,36,7.20
2016,02,23,18,37,7.10
2016,02,23,18,38,7.10
2016,02,23,18,39,7.10
2016,02,23,18,40,7.00
2016,02,23,18,41,7.00
2016,02,23,18,42,7.00
2016,02,23,18,43,7.00
2016,02,23,18,44,7.00
2016,02,23,18,45,7.00
2016,02,23,18,46,6.90
2016,02,23,18,47,6.90
2016,02,23,18,48,6.90
2016,02,23,18,49,6.90
2016,02,23,18,50,6.80
2016,02,23,18,51,6.80
2016,02,23,18,52,6.80
2016,02,23,18,53,6.80
2016,02,23,18,54,6.80
2016,02,23,18,55,6.80
2016,02,23,18,56,6.70
2016,02,23,18,57,6.70
2016,02,23,18,58,6.70
2016,02,23,18,59,6.70
2016,02,23,19,00,6.70
2016,02,23,19,01,6.70
2016,02,23,19,02,6.70
2016,02,23,19,03,6.70
2016,02,23,19,04,6.70
2016,02,23,19,05,6.70
2016,02,23,19,06,6.70
2016,02,23,19,07,6.70
2016,02,23,19,08,6.70
2016,02,23,19,09,6.70
2016,02,23,19,10,6.70
2016,02,23,19,11,6.70
2016,02,23,19,12,6.70
2016,02,23,19,13,6.70
2016,02,23,19,14,6.70
2016,02,23,19,15,6.70
2016,02,23,19,16,6.60
2016,02,23,19,17,6.60
2016,02,23,19,18,6.60
2016,02,23,19,19,6.60
2016,02,23,19,20,6.60
2016,02,23,19,21,6.60
2016,02,23,19,22,6.60
2016,02,23,19,23,6.60
2016,02,23,19,24,6.60
2016,02,23,19,25,6.60
2016,02,23,19,26,6.60
2016,02,23,19,27,6.60
2016,02,23,19,28,6.60
2016,02,23,19,29,6.60
2016,02,23,19,30,6.60
2016,02,23,19,31,6.60
2016,02,23,19,32,6.60
2016,02,23,19,33,6.50
2016,02,23,19,34,6.50
2016,02,23,19,35,6.50
2016,02,23,19,36,6.50
2016,02,23,19,37,6.40
2016,02,23,19,38,6.40
2016,02,23,19,39,6.30
2016,02,23,19,40,6.30
2016,02,23,19,41,6.30
2016,02,23,19,42,6.20
2016,02,23,19,43,6.20
2016,02,23,19,44,6.20
2016,02,23,19,45,6.20
2016,02,23,19,46,6.20
2016,02,23,19,47,6.20
2016,02,23,19,48,6.20
2016,02,23,19,49,6.20
2016,02,23,19,50,6.20
2016,02,23,19,51,6.20
2016,02,23,19,52,6.20
2016,02,23,19,53,6.20
2016,02,23,19,54,6.20
2016,02,23,19,55,6.20
